Time,TemperatureF,DewpointF,PressureIn,WindDirection,WindDirectionDegrees,WindSpeedMPH,WindSpeedGustMPH,Humidity,HourlyPrecipIn,Conditions,Clouds,dailyrainin,SoftwareType,DateUTC
2013-04-13 00:00:00,55.9,38.1,29.83,WNW,292,0.0,0.0,51,0.00,,CLR,0.76,VWS V12.08,2013-04-13 04:00:00,
2013-04-13 00:01:00,55.9,38.1,29.83,WNW,292,0.0,0.0,51,0.00,,CLR,0.76,VWS V12.08,2013-04-13 04:01:00,
2013-04-13 00:06:00,55.6,38.2,29.83,WNW,292,0.0,0.0,52,0.00,,CLR,0.76,VWS V12.08,2013-04-13 04:06:00,
2013-04-13 00:11:00,55.2,38.4,29.83,WNW,292,0.0,0.0,53,0.00,,CLR,0.76,VWS V12.08,2013-04-13 04:11:00,
2013-04-13 00:16:00,54.7,37.9,29.83,WNW,292,0.0,0.0,53,0.00,,CLR,0.76,VWS V12.08,2013-04-13 04:16:00,
2013-04-13 00:21:00,54.3,38.0,29.83,WNW,292,2.2,2.2,54,0.00,,CLR,0.76,VWS V12.08,2013-04-13 04:21:00,
2013-04-13 00:26:00,54.1,37.4,29.82,NW,315,0.0,4.5,53,0.00,,CLR,0.76,VWS V12.08,2013-04-13 04:26:00,
2013-04-13 00:31:00,54.3,37.6,29.82,NW,315,0.0,4.5,53,0.00,,CLR,0.76,VWS V12.08,2013-04-13 04:31:00,
2013-04-13 00:36:00,54.3,38.0,29.83,NW,315,0.0,4.5,54,0.00,,CLR,0.76,VWS V12.08,2013-04-13 04:36:00,
2013-04-13 00:41:00,54.1,38.3,29.83,NW,315,0.0,0.0,55,0.00,,CLR,0.76,VWS V12.08,2013-04-13 04:41:00,
2013-04-13 00:46:00,53.8,37.5,29.83,NW,315,0.0,0.0,54,0.00,,CLR,0.76,VWS V12.08,2013-04-13 04:46:00,
2013-04-13 00:52:00,53.8,37.5,29.83,NW,315,1.6,1.6,54,0.00,,CLR,0.76,VWS V12.08,2013-04-13 04:52:00,
2013-04-13 00:57:00,53.6,37.8,29.84,NW,315,0.0,2.2,55,0.00,,CLR,0.76,VWS V12.08,2013-04-13 04:57:00,
2013-04-13 01:02:00,53.4,37.7,29.84,NW,315,0.9,0.9,55,0.00,,CLR,0.48,VWS V12.08,2013-04-13 05:02:00,
2013-04-13 01:07:00,53.4,37.7,29.83,NW,315,0.9,0.9,55,0.00,,CLR,0.48,VWS V12.08,2013-04-13 05:07:00,
2013-04-13 01:12:00,53.2,37.5,29.83,NW,315,0.9,0.9,55,0.00,,CLR,0.48,VWS V12.08,2013-04-13 05:12:00,
2013-04-13 01:17:00,52.9,37.6,29.83,West,270,0.0,0.9,56,0.00,,CLR,0.48,VWS V12.08,2013-04-13 05:17:00,
2013-04-13 01:22:00,52.7,38.8,29.84,West,270,0.0,0.0,59,0.00,,CLR,0.48,VWS V12.08,2013-04-13 05:22:00,
2013-04-13 01:27:00,52.5,38.6,29.84,West,270,0.0,0.0,59,0.00,,CLR,0.48,VWS V12.08,2013-04-13 05:27:00,
2013-04-13 01:32:00,52.3,38.5,29.84,West,270,0.0,0.0,59,0.00,,CLR,0.48,VWS V12.08,2013-04-13 05:32:00,
2013-04-13 01:38:00,52.2,37.8,29.84,West,270,0.0,0.0,58,0.00,,CLR,0.48,VWS V12.08,2013-04-13 05:38:00,
2013-04-13 01:43:00,52.0,37.2,29.84,West,270,0.0,0.0,57,0.00,,CLR,0.48,VWS V12.08,2013-04-13 05:43:00,
2013-04-13 01:48:00,51.6,37.3,29.84,WNW,292,0.0,0.0,58,0.00,,CLR,0.48,VWS V12.08,2013-04-13 05:48:00,
2013-04-13 01:53:00,51.4,37.6,29.85,WNW,292,0.0,0.0,59,0.00,,CLR,0.48,VWS V12.08,2013-04-13 05:53:00,
2013-04-13 01:58:00,51.1,38.1,29.85,West,270,0.0,0.0,61,0.00,,CLR,0.48,VWS V12.08,2013-04-13 05:58:00,
2013-04-13 02:03:00,51.1,38.1,29.85,West,270,0.0,0.0,61,0.00,,CLR,0.11,VWS V12.08,2013-04-13 06:03:00,
2013-04-13 02:08:00,50.7,37.8,29.85,West,270,0.0,0.0,61,0.00,,CLR,0.11,VWS V12.08,2013-04-13 06:08:00,
2013-04-13 02:13:00,50.7,38.2,29.85,West,270,0.0,0.0,62,0.00,,CLR,0.11,VWS V12.08,2013-04-13 06:13:00,
2013-04-13 02:18:00,50.5,37.6,29.85,West,270,0.0,0.0,61,0.00,,CLR,0.11,VWS V12.08,2013-04-13 06:18:00,
2013-04-13 02:23:00,50.5,37.6,29.86,West,270,0.0,0.0,61,0.00,,CLR,0.11,VWS V12.08,2013-04-13 06:23:00,
2013-04-13 02:28:00,50.2,38.1,29.85,SE,135,0.0,0.0,63,0.00,,CLR,0.11,VWS V12.08,2013-04-13 06:28:00,
2013-04-13 02:33:00,50.2,38.1,29.85,SE,135,0.0,0.0,63,0.00,,CLR,0.11,VWS V12.08,2013-04-13 06:33:00,
2013-04-13 02:39:00,49.8,37.8,29.85,SE,135,0.0,0.0,63,0.00,,CLR,0.11,VWS V12.08,2013-04-13 06:39:00,
2013-04-13 02:45:00,49.8,37.8,29.85,SE,135,0.0,0.0,63,0.00,,CLR,0.11,VWS V12.08,2013-04-13 06:45:00,
2013-04-13 02:50:00,49.3,37.6,29.85,SSW,202,0.0,0.0,64,0.00,,CLR,0.11,VWS V12.08,2013-04-13 06:50:00,
2013-04-13 02:56:00,49.3,37.6,29.85,SSW,202,0.0,0.0,64,0.00,,CLR,0.11,VWS V12.08,2013-04-13 06:56:00,
2013-04-13 03:01:00,49.1,37.9,29.86,SSW,202,0.0,0.0,65,0.00,,CLR,0.02,VWS V12.08,2013-04-13 07:01:00,
2013-04-13 03:06:00,48.9,37.3,29.86,SSW,202,0.0,0.0,64,0.00,,CLR,0.02,VWS V12.08,2013-04-13 07:06:00,
2013-04-13 03:12:00,48.9,37.3,29.86,SSW,202,0.0,0.0,64,0.00,,CLR,0.02,VWS V12.08,2013-04-13 07:12:00,
2013-04-13 03:17:00,48.7,37.9,29.86,SSW,202,0.0,0.0,66,0.00,,CLR,0.02,VWS V12.08,2013-04-13 07:17:00,
2013-04-13 03:22:00,48.7,38.3,29.86,SSW,202,0.0,0.0,67,0.00,,CLR,0.02,VWS V12.08,2013-04-13 07:22:00,
2013-04-13 03:27:00,48.6,38.1,29.86,SSW,202,0.0,0.0,67,0.00,,CLR,0.02,VWS V12.08,2013-04-13 07:27:00,
2013-04-13 03:32:00,48.6,37.7,29.86,SSW,202,0.0,0.0,66,0.00,,CLR,0.02,VWS V12.08,2013-04-13 07:32:00,
2013-04-13 03:37:00,48.6,37.7,29.86,SSW,202,0.0,0.0,66,0.00,,CLR,0.02,VWS V12.08,2013-04-13 07:37:00,
2013-04-13 03:43:00,48.6,37.3,29.86,SSW,202,0.0,0.0,65,0.00,,CLR,0.02,VWS V12.08,2013-04-13 07:43:00,
2013-04-13 03:48:00,48.7,37.1,29.86,SSW,202,0.0,0.0,64,0.00,,CLR,0.02,VWS V12.08,2013-04-13 07:48:00,
2013-04-13 03:53:00,48.7,37.1,29.86,SSW,202,0.0,0.0,64,0.00,,CLR,0.02,VWS V12.08,2013-04-13 07:53:00,
2013-04-13 03:58:00,48.7,37.1,29.86,SSW,202,0.0,0.0,64,0.00,,CLR,0.02,VWS V12.08,2013-04-13 07:58:00,
2013-04-13 04:05:00,48.7,37.1,29.86,SSW,202,0.0,0.0,64,0.00,,CLR,0.00,VWS V12.08,2013-04-13 08:05:00,
2013-04-13 04:10:00,48.4,37.9,29.86,SSW,202,0.0,0.0,67,0.00,,CLR,0.00,VWS V12.08,2013-04-13 08:10:00,
2013-04-13 04:15:00,48.2,37.8,29.86,SSW,202,0.0,0.0,67,0.00,,CLR,0.00,VWS V12.08,2013-04-13 08:15:00,
2013-04-13 04:20:00,48.0,37.6,29.86,SSW,202,0.0,0.0,67,0.00,,CLR,0.00,VWS V12.08,2013-04-13 08:20:00,
2013-04-13 04:25:00,47.8,38.2,29.87,SSW,202,0.0,0.0,69,0.00,,CLR,0.00,VWS V12.08,2013-04-13 08:25:00,
2013-04-13 04:30:00,47.3,37.7,29.87,SSW,202,0.0,0.0,69,0.00,,CLR,0.00,VWS V12.08,2013-04-13 08:30:00,
2013-04-13 04:35:00,47.3,38.0,29.87,SSW,202,0.0,0.0,70,0.00,,CLR,0.00,VWS V12.08,2013-04-13 08:35:00,
2013-04-13 04:41:00,47.1,37.8,29.87,SSW,202,0.0,0.0,70,0.00,,CLR,0.00,VWS V12.08,2013-04-13 08:41:00,
2013-04-13 04:46:00,47.1,37.8,29.87,SSW,202,0.0,0.0,70,0.00,,CLR,0.00,VWS V12.08,2013-04-13 08:46:00,
2013-04-13 04:51:00,47.1,38.2,29.87,SSW,202,0.0,0.0,71,0.00,,CLR,0.00,VWS V12.08,2013-04-13 08:51:00,
2013-04-13 04:57:00,47.3,38.0,29.87,SSW,202,0.0,0.0,70,0.00,,CLR,0.00,VWS V12.08,2013-04-13 08:57:00,
2013-04-13 05:02:00,47.1,37.5,29.87,SSW,202,0.0,0.0,69,0.00,,CLR,0.00,VWS V12.08,2013-04-13 09:02:00,
2013-04-13 05:07:00,46.9,37.7,29.88,SSW,202,0.0,0.0,70,0.00,,CLR,0.00,VWS V12.08,2013-04-13 09:07:00,
2013-04-13 05:12:00,46.9,37.7,29.88,SSW,202,0.0,0.0,70,0.00,,CLR,0.00,VWS V12.08,2013-04-13 09:12:00,
2013-04-13 05:17:00,46.9,37.7,29.88,SSW,202,0.0,0.0,70,0.00,,CLR,0.00,VWS V12.08,2013-04-13 09:17:00,
2013-04-13 05:22:00,46.8,37.5,29.88,SSW,202,0.0,0.0,70,0.00,,CLR,0.00,VWS V12.08,2013-04-13 09:22:00,
2013-04-13 05:28:00,46.6,37.3,29.88,SSW,202,0.0,0.0,70,0.00,,CLR,0.00,VWS V12.08,2013-04-13 09:28:00,
2013-04-13 05:33:00,46.6,37.0,29.88,SSW,202,0.0,0.0,69,0.00,,CLR,0.00,VWS V12.08,2013-04-13 09:33:00,
2013-04-13 05:38:00,46.6,37.0,29.88,SSW,202,0.0,0.0,69,0.00,,CLR,0.00,VWS V12.08,2013-04-13 09:38:00,
2013-04-13 05:43:00,46.6,37.0,29.88,SSW,202,0.0,0.0,69,0.00,,CLR,0.00,VWS V12.08,2013-04-13 09:43:00,
2013-04-13 05:49:00,46.6,37.0,29.88,SSW,202,0.0,0.0,69,0.00,,CLR,0.00,VWS V12.08,2013-04-13 09:49:00,
2013-04-13 05:54:00,46.4,36.8,29.88,SSW,202,0.0,0.0,69,0.00,,CLR,0.00,VWS V12.08,2013-04-13 09:54:00,
2013-04-13 05:59:00,46.2,36.6,29.88,SSW,202,0.0,0.0,69,0.00,,CLR,0.00,VWS V12.08,2013-04-13 09:59:00,
2013-04-13 06:04:00,46.0,36.5,29.89,SSW,202,0.0,0.0,69,0.00,,CLR,0.00,VWS V12.08,2013-04-13 10:04:00,
2013-04-13 06:09:00,46.0,37.2,29.89,SSW,202,0.0,0.0,71,0.00,,CLR,0.00,VWS V12.08,2013-04-13 10:09:00,
2013-04-13 06:14:00,46.0,37.2,29.89,SSW,202,0.0,0.0,71,0.00,,CLR,0.00,VWS V12.08,2013-04-13 10:14:00,
2013-04-13 06:19:00,46.0,37.2,29.90,SSW,202,0.0,0.0,71,0.00,,CLR,0.00,VWS V12.08,2013-04-13 10:19:00,
2013-04-13 06:25:00,45.7,36.8,29.89,SSW,202,0.0,0.0,71,0.00,,CLR,0.00,VWS V12.08,2013-04-13 10:25:00,
2013-04-13 06:30:00,45.7,37.2,29.90,SSW,202,0.0,0.0,72,0.00,,CLR,0.00,VWS V12.08,2013-04-13 10:30:00,
2013-04-13 06:35:00,45.7,37.2,29.90,SSW,202,0.0,0.0,72,0.00,,CLR,0.00,VWS V12.08,2013-04-13 10:35:00,
2013-04-13 06:40:00,45.7,37.2,29.90,SSW,202,0.0,0.0,72,0.00,,CLR,0.00,VWS V12.08,2013-04-13 10:40:00,
2013-04-13 06:45:00,45.5,37.0,29.90,SSW,202,0.0,0.0,72,0.00,,CLR,0.00,VWS V12.08,2013-04-13 10:45:00,
2013-04-13 06:50:00,45.5,37.0,29.91,SSW,202,0.0,0.0,72,0.00,,CLR,0.00,VWS V12.08,2013-04-13 10:50:00,
2013-04-13 06:56:00,45.5,37.0,29.91,SSW,202,0.0,0.0,72,0.00,,CLR,0.00,VWS V12.08,2013-04-13 10:56:00,
2013-04-13 07:01:00,45.5,37.0,29.91,SSW,202,0.0,0.0,72,0.00,,CLR,0.00,VWS V12.08,2013-04-13 11:01:00,
2013-04-13 07:06:00,45.7,37.5,29.91,South,180,0.0,0.0,73,0.00,,CLR,0.00,VWS V12.08,2013-04-13 11:06:00,
2013-04-13 07:11:00,45.7,37.5,29.91,South,180,0.0,0.0,73,0.00,,CLR,0.00,VWS V12.08,2013-04-13 11:11:00,
2013-04-13 07:17:00,45.7,37.5,29.92,SSW,202,0.0,0.0,73,0.00,,CLR,0.00,VWS V12.08,2013-04-13 11:17:00,
2013-04-13 07:22:00,46.0,37.9,29.92,SSW,202,0.0,0.0,73,0.00,,CLR,0.00,VWS V12.08,2013-04-13 11:22:00,
2013-04-13 07:27:00,46.2,38.1,29.92,SSW,202,0.0,0.0,73,0.00,,CLR,0.00,VWS V12.08,2013-04-13 11:27:00,
2013-04-13 07:32:00,46.2,38.1,29.93,SSW,202,0.0,0.0,73,0.00,,CLR,0.00,VWS V12.08,2013-04-13 11:32:00,
2013-04-13 07:37:00,47.1,37.8,29.93,NW,315,2.2,2.2,70,0.00,,CLR,0.00,VWS V12.08,2013-04-13 11:37:00,
2013-04-13 07:42:00,47.7,38.0,29.93,NW,315,0.0,3.1,69,0.00,,CLR,0.00,VWS V12.08,2013-04-13 11:42:00,
2013-04-13 07:47:00,48.0,38.0,29.93,NW,315,0.0,3.1,68,0.00,,CLR,0.00,VWS V12.08,2013-04-13 11:47:00,
2013-04-13 07:53:00,48.9,38.5,29.93,North,0,1.1,3.1,67,0.00,,CLR,0.00,VWS V12.08,2013-04-13 11:53:00,
2013-04-13 07:58:00,49.6,38.4,29.94,NW,315,0.0,4.9,65,0.00,,CLR,0.00,VWS V12.08,2013-04-13 11:58:00,
2013-04-13 08:03:00,50.7,38.6,29.94,WNW,292,11.9,11.9,63,0.00,,CLR,0.00,VWS V12.08,2013-04-13 12:03:00,
2013-04-13 08:08:00,51.6,38.6,29.94,NW,315,0.0,11.9,61,0.00,,CLR,0.00,VWS V12.08,2013-04-13 12:08:00,
2013-04-13 08:13:00,52.3,38.9,29.95,NW,315,0.0,11.9,60,0.00,,CLR,0.00,VWS V12.08,2013-04-13 12:13:00,
2013-04-13 08:18:00,52.9,39.4,29.95,NW,315,0.0,11.9,60,0.00,,CLR,0.00,VWS V12.08,2013-04-13 12:18:00,
2013-04-13 08:23:00,53.2,38.9,29.95,WNW,292,3.4,9.8,58,0.00,,CLR,0.00,VWS V12.08,2013-04-13 12:23:00,
2013-04-13 08:28:00,54.0,39.5,29.95,WNW,292,15.7,15.7,58,0.00,,CLR,0.00,VWS V12.08,2013-04-13 12:28:00,
2013-04-13 08:34:00,54.3,39.4,29.95,WNW,292,4.7,15.7,57,0.00,,CLR,0.00,VWS V12.08,2013-04-13 12:34:00,
2013-04-13 08:39:00,54.7,39.3,29.95,WSW,248,6.3,15.7,56,0.00,,CLR,0.00,VWS V12.08,2013-04-13 12:39:00,
2013-04-13 08:44:00,55.0,39.7,29.95,SSE,158,1.6,6.7,56,0.00,,CLR,0.00,VWS V12.08,2013-04-13 12:44:00,
2013-04-13 08:49:00,55.4,39.5,29.95,NW,315,1.6,7.6,55,0.00,,CLR,0.00,VWS V12.08,2013-04-13 12:49:00,
2013-04-13 08:54:00,55.4,39.0,29.96,NNW,338,1.6,7.6,54,0.00,,CLR,0.00,VWS V12.08,2013-04-13 12:54:00,
2013-04-13 08:59:00,55.8,39.4,29.96,NNE,22,1.1,7.6,54,0.00,,CLR,0.00,VWS V12.08,2013-04-13 12:59:00,
2013-04-13 09:04:00,55.9,39.5,29.95,North,0,0.0,9.0,54,0.00,,CLR,0.00,VWS V12.08,2013-04-13 13:04:00,
2013-04-13 09:09:00,56.1,39.2,29.95,WSW,248,2.5,9.0,53,0.00,,CLR,0.00,VWS V12.08,2013-04-13 13:09:00,
2013-04-13 09:14:00,56.5,39.1,29.95,SW,225,1.8,9.8,52,0.00,,CLR,0.00,VWS V12.08,2013-04-13 13:14:00,
2013-04-13 09:20:00,56.8,39.4,29.96,NNE,22,2.5,6.9,52,0.00,,CLR,0.00,VWS V12.08,2013-04-13 13:20:00,
2013-04-13 09:25:00,57.0,39.1,29.96,WNW,292,2.5,7.4,51,0.00,,CLR,0.00,VWS V12.08,2013-04-13 13:25:00,
2013-04-13 09:30:00,57.9,40.4,29.96,West,270,2.2,8.1,52,0.00,,CLR,0.00,VWS V12.08,2013-04-13 13:30:00,
2013-04-13 09:36:00,58.5,39.9,29.96,South,180,0.0,14.1,50,0.00,,CLR,0.00,VWS V12.08,2013-04-13 13:36:00,
2013-04-13 09:41:00,58.8,40.2,29.96,WNW,292,3.1,8.7,50,0.00,,CLR,0.00,VWS V12.08,2013-04-13 13:41:00,
2013-04-13 09:46:00,59.2,40.0,29.96,WNW,292,4.3,9.0,49,0.00,,CLR,0.00,VWS V12.08,2013-04-13 13:46:00,
2013-04-13 09:51:00,59.9,40.7,29.97,NE,45,0.0,9.0,49,0.00,,CLR,0.00,VWS V12.08,2013-04-13 13:51:00,
2013-04-13 09:57:00,60.4,39.6,29.97,WSW,248,0.0,9.0,46,0.00,,CLR,0.00,VWS V12.08,2013-04-13 13:57:00,
2013-04-13 10:02:00,60.6,40.3,29.97,South,180,0.0,5.6,47,0.00,,CLR,0.00,VWS V12.08,2013-04-13 14:02:00,
2013-04-13 10:07:00,60.8,41.0,29.97,SW,225,2.0,5.6,48,0.00,,CLR,0.00,VWS V12.08,2013-04-13 14:07:00,
2013-04-13 10:12:00,61.2,40.8,29.98,WSW,248,0.0,6.7,47,0.00,,CLR,0.00,VWS V12.08,2013-04-13 14:12:00,
2013-04-13 10:18:00,61.0,40.1,29.97,SSE,158,0.0,6.7,46,0.00,,CLR,0.00,VWS V12.08,2013-04-13 14:18:00,
2013-04-13 10:23:00,61.3,40.4,29.97,SSW,202,1.8,4.9,46,0.00,,CLR,0.00,VWS V12.08,2013-04-13 14:23:00,
2013-04-13 10:28:00,61.7,40.2,29.98,SSW,202,0.0,4.9,45,0.00,,CLR,0.00,VWS V12.08,2013-04-13 14:28:00,
2013-04-13 10:34:00,62.2,42.3,29.98,SE,135,0.0,4.9,48,0.00,,CLR,0.00,VWS V12.08,2013-04-13 14:34:00,
2013-04-13 10:39:00,63.1,43.2,29.98,SE,135,0.0,4.9,48,0.00,,CLR,0.00,VWS V12.08,2013-04-13 14:39:00,
2013-04-13 10:44:00,64.0,43.4,29.98,South,180,0.0,3.1,47,0.00,,CLR,0.00,VWS V12.08,2013-04-13 14:44:00,
2013-04-13 10:49:00,64.2,43.0,29.98,SE,135,0.0,6.7,46,0.00,,CLR,0.00,VWS V12.08,2013-04-13 14:49:00,
2013-04-13 10:54:00,64.8,43.0,29.98,SW,225,0.0,6.7,45,0.00,,CLR,0.00,VWS V12.08,2013-04-13 14:54:00,
2013-04-13 10:59:00,65.5,44.7,29.98,NW,315,3.1,6.7,47,0.00,,CLR,0.00,VWS V12.08,2013-04-13 14:59:00,
2013-04-13 11:04:00,65.5,43.6,29.98,WNW,292,1.8,4.7,45,0.00,,CLR,0.00,VWS V12.08,2013-04-13 15:04:00,
2013-04-13 11:09:00,66.0,43.5,29.98,WNW,292,0.0,5.4,44,0.00,,CLR,0.00,VWS V12.08,2013-04-13 15:09:00,
2013-04-13 11:15:00,66.0,42.3,29.98,West,270,1.1,5.4,42,0.00,,CLR,0.00,VWS V12.08,2013-04-13 15:15:00,
2013-04-13 11:20:00,65.8,43.3,29.98,SE,135,4.7,9.6,44,0.00,,CLR,0.00,VWS V12.08,2013-04-13 15:20:00,
2013-04-13 11:25:00,66.0,43.5,29.98,SSW,202,4.7,5.4,44,0.00,,CLR,0.00,VWS V12.08,2013-04-13 15:25:00,
2013-04-13 11:30:00,66.0,42.9,29.98,WNW,292,4.0,9.6,43,0.00,,CLR,0.00,VWS V12.08,2013-04-13 15:30:00,
2013-04-13 11:35:00,66.2,43.7,29.98,WNW,292,2.2,9.6,44,0.00,,CLR,0.00,VWS V12.08,2013-04-13 15:35:00,
2013-04-13 11:40:00,66.6,43.4,29.98,West,270,2.2,6.0,43,0.00,,CLR,0.00,VWS V12.08,2013-04-13 15:40:00,
2013-04-13 11:45:00,66.7,43.5,29.98,SW,225,1.1,6.0,43,0.00,,CLR,0.00,VWS V12.08,2013-04-13 15:45:00,
2013-04-13 11:50:00,67.3,44.0,29.98,South,180,4.7,6.0,43,0.00,,CLR,0.00,VWS V12.08,2013-04-13 15:50:00,
2013-04-13 11:56:00,67.8,43.3,29.98,SSW,202,3.8,8.7,41,0.00,,CLR,0.00,VWS V12.08,2013-04-13 15:56:00,
2013-04-13 12:01:00,67.8,44.5,29.98,North,0,0.0,2.2,43,0.00,,CLR,0.00,VWS V12.08,2013-04-13 16:01:00,
2013-04-13 12:07:00,68.5,43.9,29.98,ESE,112,0.0,5.8,41,0.00,,CLR,0.00,VWS V12.08,2013-04-13 16:07:00,
2013-04-13 12:12:00,68.9,42.3,29.98,West,270,3.6,6.7,38,0.00,,CLR,0.00,VWS V12.08,2013-04-13 16:12:00,
2013-04-13 12:17:00,68.9,42.3,29.98,North,0,4.3,6.7,38,0.00,,CLR,0.00,VWS V12.08,2013-04-13 16:17:00,
2013-04-13 12:22:00,69.1,43.8,29.97,SE,135,0.0,1.8,40,0.00,,CLR,0.00,VWS V12.08,2013-04-13 16:22:00,
2013-04-13 12:28:00,69.4,43.4,29.97,NW,315,0.0,5.8,39,0.00,,CLR,0.00,VWS V12.08,2013-04-13 16:28:00,
2013-04-13 12:33:00,70.3,44.2,29.97,NW,315,0.0,5.8,39,0.00,,CLR,0.00,VWS V12.08,2013-04-13 16:33:00,
2013-04-13 12:38:00,70.2,42.7,29.97,WSW,248,0.0,5.8,37,0.00,,CLR,0.00,VWS V12.08,2013-04-13 16:38:00,
2013-04-13 12:43:00,70.2,44.1,29.96,West,270,0.0,3.6,39,0.00,,CLR,0.00,VWS V12.08,2013-04-13 16:43:00,
2013-04-13 12:48:00,71.2,44.4,29.96,SSW,202,0.0,5.6,38,0.00,,CLR,0.00,VWS V12.08,2013-04-13 16:48:00,
2013-04-13 12:53:00,71.2,44.4,29.96,SE,135,0.4,5.6,38,0.00,,CLR,0.00,VWS V12.08,2013-04-13 16:53:00,
2013-04-13 12:58:00,71.2,44.4,29.96,SSE,158,0.0,5.6,38,0.00,,CLR,0.00,VWS V12.08,2013-04-13 16:58:00,
2013-04-13 13:03:00,71.4,43.1,29.96,ESE,112,0.9,3.1,36,0.00,,CLR,0.00,VWS V12.08,2013-04-13 17:03:00,
2013-04-13 13:09:00,72.1,45.8,29.95,SSE,158,0.0,4.3,39,0.00,,CLR,0.00,VWS V12.08,2013-04-13 17:09:00,
2013-04-13 13:14:00,72.1,43.7,29.95,SW,225,3.4,7.8,36,0.00,,CLR,0.00,VWS V12.08,2013-04-13 17:14:00,
2013-04-13 13:19:00,72.7,43.5,29.95,SSE,158,2.0,8.3,35,0.00,,CLR,0.00,VWS V12.08,2013-04-13 17:19:00,
2013-04-13 13:24:00,72.3,43.2,29.95,South,180,3.4,4.9,35,0.00,,CLR,0.00,VWS V12.08,2013-04-13 17:24:00,
2013-04-13 13:30:00,72.3,42.4,29.95,WSW,248,0.9,6.5,34,0.00,,CLR,0.00,VWS V12.08,2013-04-13 17:30:00,
2013-04-13 13:35:00,72.0,42.8,29.94,ESE,112,0.0,6.5,35,0.00,,CLR,0.00,VWS V12.08,2013-04-13 17:35:00,
2013-04-13 13:40:00,72.3,43.9,29.94,WSW,248,0.0,6.5,36,0.00,,CLR,0.00,VWS V12.08,2013-04-13 17:40:00,
2013-04-13 13:46:00,72.5,44.1,29.94,SSE,158,2.2,7.4,36,0.00,,CLR,0.00,VWS V12.08,2013-04-13 17:46:00,
2013-04-13 13:51:00,72.7,43.5,29.94,NNW,338,3.1,7.4,35,0.00,,CLR,0.00,VWS V12.08,2013-04-13 17:51:00,
2013-04-13 13:56:00,73.0,44.5,29.94,SSE,158,1.8,7.4,36,0.00,,CLR,0.00,VWS V12.08,2013-04-13 17:56:00,
2013-04-13 14:01:00,73.6,44.3,29.94,SW,225,0.7,6.3,35,0.00,,CLR,0.00,VWS V12.08,2013-04-13 18:01:00,
2013-04-13 14:07:00,73.9,44.6,29.94,NNW,338,0.0,6.3,35,0.00,,CLR,0.00,VWS V12.08,2013-04-13 18:07:00,
2013-04-13 14:12:00,74.1,44.8,29.93,ENE,68,1.6,6.3,35,0.00,,CLR,0.00,VWS V12.08,2013-04-13 18:12:00,
2013-04-13 14:17:00,74.1,44.0,29.93,ESE,112,1.8,6.3,34,0.00,,CLR,0.00,VWS V12.08,2013-04-13 18:17:00,
2013-04-13 14:22:00,74.1,44.8,29.93,ESE,112,0.0,4.7,35,0.00,,CLR,0.00,VWS V12.08,2013-04-13 18:22:00,
2013-04-13 14:27:00,73.9,43.0,29.93,West,270,0.0,5.8,33,0.00,,CLR,0.00,VWS V12.08,2013-04-13 18:27:00,
2013-04-13 14:28:00,73.9,43.8,29.93,NW,315,2.5,5.8,34,0.00,,CLR,0.00,VWS V12.08,2013-04-13 18:28:00,
2013-04-13 14:33:00,73.8,43.7,29.93,SW,225,0.0,6.0,34,0.00,,CLR,0.00,VWS V12.08,2013-04-13 18:33:00,
2013-04-13 14:38:00,73.8,43.7,29.93,West,270,0.0,6.0,34,0.00,,CLR,0.00,VWS V12.08,2013-04-13 18:38:00,
2013-04-13 14:43:00,73.9,43.0,29.93,NW,315,3.1,4.9,33,0.00,,CLR,0.00,VWS V12.08,2013-04-13 18:43:00,
2013-04-13 14:48:00,73.9,43.0,29.93,WSW,248,3.6,4.9,33,0.00,,CLR,0.00,VWS V12.08,2013-04-13 18:48:00,
2013-04-13 14:53:00,74.1,42.4,29.93,WNW,292,1.1,4.9,32,0.00,,CLR,0.00,VWS V12.08,2013-04-13 18:53:00,
2013-04-13 14:59:00,74.5,40.2,29.93,WSW,248,3.6,13.6,29,0.00,,CLR,0.00,VWS V12.08,2013-04-13 18:59:00,
2013-04-13 15:04:00,73.9,38.8,29.93,SW,225,0.0,9.2,28,0.00,,CLR,0.00,VWS V12.08,2013-04-13 19:04:00,
2013-04-13 15:09:00,73.9,40.6,29.92,WNW,292,1.6,9.2,30,0.00,,CLR,0.00,VWS V12.08,2013-04-13 19:09:00,
2013-04-13 15:14:00,73.9,40.6,29.92,WNW,292,0.0,9.2,30,0.00,,CLR,0.00,VWS V12.08,2013-04-13 19:14:00,
2013-04-13 15:19:00,74.5,41.0,29.92,West,270,0.0,10.1,30,0.00,,CLR,0.00,VWS V12.08,2013-04-13 19:19:00,
2013-04-13 15:24:00,74.8,41.4,29.92,ESE,112,0.0,4.7,30,0.00,,CLR,0.00,VWS V12.08,2013-04-13 19:24:00,
2013-04-13 15:29:00,75.0,39.7,29.91,NW,315,6.9,12.3,28,0.00,,CLR,0.00,VWS V12.08,2013-04-13 19:29:00,
2013-04-13 15:34:00,75.0,39.7,29.91,WNW,292,1.8,14.3,28,0.00,,CLR,0.00,VWS V12.08,2013-04-13 19:34:00,
2013-04-13 15:39:00,75.0,39.7,29.91,WNW,292,4.7,14.3,28,0.00,,CLR,0.00,VWS V12.08,2013-04-13 19:39:00,
2013-04-13 15:44:00,74.5,39.3,29.91,WSW,248,3.6,7.8,28,0.00,,CLR,0.00,VWS V12.08,2013-04-13 19:44:00,
2013-04-13 15:49:00,74.5,38.3,29.91,North,0,6.5,8.3,27,0.00,,CLR,0.00,VWS V12.08,2013-04-13 19:49:00,
2013-04-13 15:54:00,74.7,38.5,29.91,NW,315,2.5,8.3,27,0.00,,CLR,0.00,VWS V12.08,2013-04-13 19:54:00,
2013-04-13 15:59:00,74.7,38.5,29.91,ESE,112,0.0,8.3,27,0.00,,CLR,0.00,VWS V12.08,2013-04-13 19:59:00,
2013-04-13 16:04:00,75.0,39.7,29.91,WSW,248,0.0,2.7,28,0.00,,CLR,0.00,VWS V12.08,2013-04-13 20:04:00,
2013-04-13 16:09:00,75.0,39.7,29.91,West,270,1.6,6.5,28,0.00,,CLR,0.00,VWS V12.08,2013-04-13 20:09:00,
2013-04-13 16:14:00,75.4,39.1,29.91,WNW,292,0.9,6.9,27,0.00,,CLR,0.00,VWS V12.08,2013-04-13 20:14:00,
2013-04-13 16:19:00,75.4,40.0,29.90,ENE,68,2.9,8.3,28,0.00,,CLR,0.00,VWS V12.08,2013-04-13 20:19:00,
2013-04-13 16:25:00,75.4,36.1,29.91,North,0,6.0,9.0,24,0.00,,CLR,0.00,VWS V12.08,2013-04-13 20:25:00,
2013-04-13 16:30:00,75.2,37.0,29.91,North,0,7.8,11.4,25,0.00,,CLR,0.00,VWS V12.08,2013-04-13 20:30:00,
2013-04-13 16:35:00,75.2,37.0,29.91,NNW,338,1.3,11.4,25,0.00,,CLR,0.00,VWS V12.08,2013-04-13 20:35:00,
2013-04-13 16:40:00,75.2,38.0,29.91,NNW,338,4.9,13.4,26,0.00,,CLR,0.00,VWS V12.08,2013-04-13 20:40:00,
2013-04-13 16:45:00,74.8,37.7,29.91,WNW,292,4.9,11.9,26,0.00,,CLR,0.00,VWS V12.08,2013-04-13 20:45:00,
2013-04-13 16:50:00,75.0,38.8,29.90,NW,315,0.7,11.9,27,0.00,,CLR,0.00,VWS V12.08,2013-04-13 20:50:00,
2013-04-13 16:55:00,75.0,36.8,29.91,WNW,292,10.3,13.2,25,0.00,,CLR,0.00,VWS V12.08,2013-04-13 20:55:00,
2013-04-13 17:00:00,74.8,36.7,29.91,WNW,292,4.5,17.5,25,0.00,,CLR,0.00,VWS V12.08,2013-04-13 21:00:00,
2013-04-13 17:05:00,74.5,36.4,29.91,NW,315,4.9,15.7,25,0.00,,CLR,0.00,VWS V12.08,2013-04-13 21:05:00,
2013-04-13 17:10:00,74.3,36.2,29.91,WNW,292,2.9,15.7,25,0.00,,CLR,0.00,VWS V12.08,2013-04-13 21:10:00,
2013-04-13 17:15:00,74.3,37.2,29.90,NW,315,10.7,15.7,26,0.00,,CLR,0.00,VWS V12.08,2013-04-13 21:15:00,
2013-04-13 17:20:00,74.3,37.2,29.91,WNW,292,7.2,12.3,26,0.00,,CLR,0.00,VWS V12.08,2013-04-13 21:20:00,
2013-04-13 17:25:00,74.3,37.2,29.91,NW,315,6.0,13.6,26,0.00,,CLR,0.00,VWS V12.08,2013-04-13 21:25:00,
2013-04-13 17:30:00,73.9,36.9,29.91,NW,315,12.8,13.6,26,0.00,,CLR,0.00,VWS V12.08,2013-04-13 21:30:00,
2013-04-13 17:35:00,73.9,36.9,29.91,WNW,292,5.6,13.6,26,0.00,,CLR,0.00,VWS V12.08,2013-04-13 21:35:00,
2013-04-13 17:40:00,73.8,36.8,29.91,WNW,292,3.8,7.6,26,0.00,,CLR,0.00,VWS V12.08,2013-04-13 21:40:00,
2013-04-13 17:45:00,73.6,37.6,29.91,WNW,292,5.1,8.5,27,0.00,,CLR,0.00,VWS V12.08,2013-04-13 21:45:00,
2013-04-13 17:50:00,73.6,38.5,29.91,NNW,338,5.6,11.6,28,0.00,,CLR,0.00,VWS V12.08,2013-04-13 21:50:00,
2013-04-13 17:55:00,73.4,37.4,29.92,West,270,2.5,11.6,27,0.00,,CLR,0.00,VWS V12.08,2013-04-13 21:55:00,
2013-04-13 18:01:00,73.4,36.5,29.92,WNW,292,9.6,9.6,26,0.00,,CLR,0.00,VWS V12.08,2013-04-13 22:01:00,
2013-04-13 18:06:00,73.2,36.3,29.92,WNW,292,5.4,13.4,26,0.00,,CLR,0.00,VWS V12.08,2013-04-13 22:06:00,
2013-04-13 18:11:00,73.2,38.2,29.92,NNW,338,0.7,13.4,28,0.00,,CLR,0.00,VWS V12.08,2013-04-13 22:11:00,
2013-04-13 18:16:00,73.0,38.0,29.92,NNW,338,3.1,13.4,28,0.00,,CLR,0.00,VWS V12.08,2013-04-13 22:16:00,
2013-04-13 18:21:00,73.0,38.0,29.92,WNW,292,6.5,6.9,28,0.00,,CLR,0.00,VWS V12.08,2013-04-13 22:21:00,
2013-04-13 18:26:00,73.0,38.0,29.93,WNW,292,0.4,7.4,28,0.00,,CLR,0.00,VWS V12.08,2013-04-13 22:26:00,
2013-04-13 18:32:00,72.9,37.9,29.92,NNW,338,0.0,9.4,28,0.00,,CLR,0.00,VWS V12.08,2013-04-13 22:32:00,
2013-04-13 18:37:00,72.9,38.8,29.93,NW,315,6.0,9.4,29,0.00,,CLR,0.00,VWS V12.08,2013-04-13 22:37:00,
2013-04-13 18:42:00,72.9,38.8,29.93,WNW,292,5.4,9.2,29,0.00,,CLR,0.00,VWS V12.08,2013-04-13 22:42:00,
2013-04-13 18:47:00,71.8,37.8,29.93,NNW,338,1.3,9.2,29,0.00,,CLR,0.00,VWS V12.08,2013-04-13 22:47:00,
2013-04-13 18:52:00,71.8,38.7,29.93,NNW,338,2.5,11.6,30,0.00,,CLR,0.00,VWS V12.08,2013-04-13 22:52:00,
2013-04-13 18:57:00,71.8,37.8,29.93,West,270,5.4,13.2,29,0.00,,CLR,0.00,VWS V12.08,2013-04-13 22:57:00,
2013-04-13 19:02:00,70.3,36.6,29.93,NNE,22,2.9,7.6,29,0.00,,CLR,0.00,VWS V12.08,2013-04-13 23:02:00,
2013-04-13 19:07:00,70.0,37.2,29.93,NW,315,0.0,10.3,30,0.00,,CLR,0.00,VWS V12.08,2013-04-13 23:07:00,
2013-04-13 19:13:00,70.0,38.0,29.94,NNW,338,5.6,11.9,31,0.00,,CLR,0.00,VWS V12.08,2013-04-13 23:13:00,
2013-04-13 19:18:00,70.0,38.0,29.94,WNW,292,3.1,11.9,31,0.00,,CLR,0.00,VWS V12.08,2013-04-13 23:18:00,
2013-04-13 19:23:00,68.7,36.9,29.94,NW,315,8.3,10.3,31,0.00,,CLR,0.00,VWS V12.08,2013-04-13 23:23:00,
2013-04-13 19:28:00,68.7,36.9,29.93,NW,315,2.9,13.6,31,0.00,,CLR,0.00,VWS V12.08,2013-04-13 23:28:00,
2013-04-13 19:33:00,68.4,36.6,29.93,NW,315,0.9,13.6,31,0.00,,CLR,0.00,VWS V12.08,2013-04-13 23:33:00,
2013-04-13 19:38:00,67.6,36.0,29.94,NW,315,3.6,13.6,31,0.00,,CLR,0.00,VWS V12.08,2013-04-13 23:38:00,
2013-04-13 19:43:00,67.3,35.6,29.94,WNW,292,0.0,9.8,31,0.00,,CLR,0.00,VWS V12.08,2013-04-13 23:43:00,
2013-04-13 19:48:00,66.9,35.3,29.94,WSW,248,5.6,9.8,31,0.00,,CLR,0.00,VWS V12.08,2013-04-13 23:48:00,
2013-04-13 19:53:00,66.7,35.2,29.95,NW,315,2.0,10.3,31,0.00,,CLR,0.00,VWS V12.08,2013-04-13 23:53:00,
2013-04-13 19:59:00,66.6,35.0,29.95,WNW,292,5.8,10.3,31,0.00,,CLR,0.00,VWS V12.08,2013-04-13 23:59:00,
2013-04-13 20:04:00,66.2,34.7,29.95,WNW,292,0.0,9.2,31,0.00,,CLR,0.00,VWS V12.08,2013-04-14 00:04:00,
2013-04-13 20:09:00,66.0,34.5,29.96,WNW,292,5.1,9.2,31,0.00,,CLR,0.00,VWS V12.08,2013-04-14 00:09:00,
2013-04-13 20:14:00,65.8,34.4,29.96,WNW,292,10.5,13.0,31,0.00,,CLR,0.00,VWS V12.08,2013-04-14 00:14:00,
2013-04-13 20:19:00,65.8,33.6,29.96,NNE,22,1.3,14.3,30,0.00,,CLR,0.00,VWS V12.08,2013-04-14 00:19:00,
2013-04-13 20:24:00,65.8,34.4,29.96,NNW,338,6.5,9.8,31,0.00,,CLR,0.00,VWS V12.08,2013-04-14 00:24:00,
2013-04-13 20:29:00,65.8,34.4,29.96,NW,315,7.6,9.8,31,0.00,,CLR,0.00,VWS V12.08,2013-04-14 00:29:00,
2013-04-13 20:34:00,65.5,34.1,29.96,NW,315,6.5,11.2,31,0.00,,CLR,0.00,VWS V12.08,2013-04-14 00:34:00,
2013-04-13 20:39:00,65.5,34.1,29.97,NNW,338,4.9,11.2,31,0.00,,CLR,0.00,VWS V12.08,2013-04-14 00:39:00,
2013-04-13 20:44:00,65.5,34.1,29.97,NW,315,0.0,9.0,31,0.00,,CLR,0.00,VWS V12.08,2013-04-14 00:44:00,
2013-04-13 20:50:00,65.5,34.1,29.98,NW,315,0.0,9.0,31,0.00,,CLR,0.00,VWS V12.08,2013-04-14 00:50:00,
2013-04-13 20:55:00,64.6,33.3,29.98,NNW,338,0.0,9.0,31,0.00,,CLR,0.00,VWS V12.08,2013-04-14 00:55:00,
2013-04-13 21:00:00,64.2,33.8,29.98,NNW,338,0.0,0.0,32,0.00,,CLR,0.00,VWS V12.08,2013-04-14 01:00:00,
2013-04-13 21:05:00,64.2,33.8,29.98,NNW,338,0.0,0.0,32,0.00,,CLR,0.00,VWS V12.08,2013-04-14 01:05:00,
2013-04-13 21:10:00,64.2,34.5,29.98,NNW,338,0.0,0.0,33,0.00,,CLR,0.00,VWS V12.08,2013-04-14 01:10:00,
2013-04-13 21:15:00,64.2,35.3,29.99,NNW,338,0.0,0.0,34,0.00,,CLR,0.00,VWS V12.08,2013-04-14 01:15:00,
2013-04-13 21:20:00,62.2,34.3,29.99,NNW,338,0.0,0.0,35,0.00,,CLR,0.00,VWS V12.08,2013-04-14 01:20:00,
2013-04-13 21:25:00,61.7,33.8,29.99,NNW,338,0.0,0.0,35,0.00,,CLR,0.00,VWS V12.08,2013-04-14 01:25:00,
2013-04-13 21:30:00,61.3,34.2,29.99,North,0,0.0,0.0,36,0.00,,CLR,0.00,VWS V12.08,2013-04-14 01:30:00,
2013-04-13 21:35:00,61.0,34.5,30.00,North,0,0.0,0.0,37,0.00,,CLR,0.00,VWS V12.08,2013-04-14 01:35:00,
2013-04-13 21:41:00,60.4,34.7,30.00,North,0,0.0,0.0,38,0.00,,CLR,0.00,VWS V12.08,2013-04-14 01:41:00,
2013-04-13 21:46:00,60.1,33.8,30.00,North,0,0.0,0.0,37,0.00,,CLR,0.00,VWS V12.08,2013-04-14 01:46:00,
2013-04-13 21:51:00,59.7,34.1,30.01,North,0,0.0,0.0,38,0.00,,CLR,0.00,VWS V12.08,2013-04-14 01:51:00,
2013-04-13 21:56:00,59.4,33.8,30.01,North,0,0.0,0.0,38,0.00,,CLR,0.00,VWS V12.08,2013-04-14 01:56:00,
2013-04-13 22:01:00,58.8,33.9,30.01,North,0,0.0,0.0,39,0.00,,CLR,0.00,VWS V12.08,2013-04-14 02:01:00,
2013-04-13 22:06:00,58.8,35.2,30.02,North,0,0.0,0.0,41,0.00,,CLR,0.00,VWS V12.08,2013-04-14 02:06:00,
2013-04-13 22:11:00,58.3,35.3,30.02,North,0,0.0,0.0,42,0.00,,CLR,0.00,VWS V12.08,2013-04-14 02:11:00,
2013-04-13 22:16:00,57.9,35.6,30.02,North,0,0.0,0.0,43,0.00,,CLR,0.00,VWS V12.08,2013-04-14 02:16:00,
2013-04-13 22:21:00,57.7,35.4,30.02,North,0,0.0,0.0,43,0.00,,CLR,0.00,VWS V12.08,2013-04-14 02:21:00,
2013-04-13 22:26:00,57.4,35.7,30.02,North,0,0.0,0.0,44,0.00,,CLR,0.00,VWS V12.08,2013-04-14 02:26:00,
2013-04-13 22:31:00,57.0,35.3,30.02,North,0,0.0,0.0,44,0.00,,CLR,0.00,VWS V12.08,2013-04-14 02:31:00,
2013-04-13 22:36:00,57.0,35.3,30.02,North,0,0.0,0.0,44,0.00,,CLR,0.00,VWS V12.08,2013-04-14 02:36:00,
2013-04-13 22:42:00,56.8,35.2,30.02,North,0,0.0,0.0,44,0.00,,CLR,0.00,VWS V12.08,2013-04-14 02:42:00,
2013-04-13 22:47:00,56.5,34.8,30.02,North,0,0.0,0.0,44,0.00,,CLR,0.00,VWS V12.08,2013-04-14 02:47:00,
2013-04-13 22:52:00,56.5,34.3,30.03,North,0,0.0,0.0,43,0.00,,CLR,0.00,VWS V12.08,2013-04-14 02:52:00,
2013-04-13 22:57:00,56.1,34.5,30.02,North,0,0.0,0.0,44,0.00,,CLR,0.00,VWS V12.08,2013-04-14 02:57:00,
2013-04-13 23:02:00,55.9,34.4,30.02,North,0,0.0,0.0,44,0.00,,CLR,0.00,VWS V12.08,2013-04-14 03:02:00,
2013-04-13 23:07:00,55.8,34.8,30.02,North,0,0.0,0.0,45,0.00,,CLR,0.00,VWS V12.08,2013-04-14 03:07:00,
2013-04-13 23:12:00,55.6,35.2,30.03,North,0,0.0,0.0,46,0.00,,CLR,0.00,VWS V12.08,2013-04-14 03:12:00,
2013-04-13 23:17:00,55.4,35.0,30.02,North,0,0.0,0.0,46,0.00,,CLR,0.00,VWS V12.08,2013-04-14 03:17:00,
2013-04-13 23:23:00,55.4,35.0,30.02,North,0,0.0,0.0,46,0.00,,CLR,0.00,VWS V12.08,2013-04-14 03:23:00,
2013-04-13 23:28:00,55.2,35.4,30.02,North,0,0.0,0.0,47,0.00,,CLR,0.00,VWS V12.08,2013-04-14 03:28:00,
2013-04-13 23:33:00,55.2,35.4,30.02,North,0,0.0,0.0,47,0.00,,CLR,0.00,VWS V12.08,2013-04-14 03:33:00,
2013-04-13 23:38:00,55.2,35.4,30.02,North,0,0.0,0.0,47,0.00,,CLR,0.00,VWS V12.08,2013-04-14 03:38:00,
2013-04-13 23:43:00,55.0,36.2,30.02,North,0,0.0,0.0,49,0.00,,CLR,0.00,VWS V12.08,2013-04-14 03:43:00,
2013-04-13 23:48:00,54.7,36.4,30.02,North,0,0.0,0.0,50,0.00,,CLR,0.00,VWS V12.08,2013-04-14 03:48:00,
2013-04-13 23:53:00,54.3,37.1,30.01,North,0,0.0,0.0,52,0.00,,CLR,0.00,VWS V12.08,2013-04-14 03:53:00,
2013-04-13 23:58:00,54.1,37.9,30.02,North,0,0.0,0.0,54,0.00,,CLR,0.00,VWS V12.08,2013-04-14 03:58:00,